• In Moldova, Republic
  • List of Countries
  • For 7 days
  • Water Temperature
  • Satellite Maps
  • Weather Map
  • Weather Widgets
  • user-avatar
    Login

    Hourly Weather Saurimo

    Today, 28 July, Friday

    Time Temperature Precipitation Wind Pressure Humidity
    00:00 +21°C° 0 mm 2 mps 672 mmHg 28%
    01:00 +21°C° 0 mm 2 mps 672 mmHg 28%
    02:00 +20°C° 0 mm 2 mps 671 mmHg 29%
    03:00 +20°C° 0 mm 3 mps 671 mmHg 29%
    04:00 +19°C° 0 mm 3 mps 671 mmHg 30%
    05:00 +20°C° 0 mm 3 mps 672 mmHg 29%
    06:00 +20°C° 0 mm 4 mps 672 mmHg 28%
    07:00 +21°C° 0 mm 4 mps 672 mmHg 28%
    08:00 +25°C° 0 mm 4 mps 673 mmHg 25%
    09:00 +28°C° 0 mm 4 mps 674 mmHg 22%
    10:00 +30°C° 0 mm 4 mps 674 mmHg 19%
    11:00 +33°C° 0 mm 4 mps 674 mmHg 18%
    12:00 +34°C° 0 mm 3 mps 673 mmHg 16%
    13:00 +36°C° 0 mm 3 mps 673 mmHg 15%
    14:00 +36°C° 0 mm 3 mps 673 mmHg 15%
    15:00 +35°C° 0 mm 2 mps 672 mmHg 15%
    16:00 +35°C° 0 mm 2 mps 671 mmHg 14%
    17:00 +32°C° 0 mm 2 mps 671 mmHg 17%
    18:00 +29°C° 0 mm 2 mps 671 mmHg 20%
    19:00 +26°C° 0 mm 2 mps 671 mmHg 23%
    20:00 +26°C° 0 mm 2 mps 672 mmHg 24%
    21:00 +25°C° 0 mm 2 mps 672 mmHg 25%
    22:00 +24°C° 0 mm 3 mps 672 mmHg 26%
    23:00 +24°C° 0 mm 3 mps 672 mmHg 26%

    Tomorrow, 29 July, Saturday

    Time Temperature Precipitation Wind Pressure Humidity
    00:00 +22°C° 0 mm 3 mps 672 mmHg 26%
    01:00 +22°C° 0 mm 3 mps 672 mmHg 26%
    02:00 +21°C° 0 mm 3 mps 672 mmHg 26%
    03:00 +21°C° 0 mm 3 mps 671 mmHg 26%
    04:00 +20°C° 0 mm 3 mps 671 mmHg 26%
    05:00 +20°C° 0 mm 3 mps 672 mmHg 26%
    06:00 +20°C° 0 mm 4 mps 672 mmHg 25%
    07:00 +20°C° 0 mm 4 mps 673 mmHg 25%
    08:00 +23°C° 0 mm 4 mps 673 mmHg 23%
    09:00 +27°C° 0 mm 4 mps 674 mmHg 20%
    10:00 +30°C° 0 mm 4 mps 675 mmHg 17%
    11:00 +32°C° 0 mm 4 mps 674 mmHg 16%
    12:00 +34°C° 0 mm 3 mps 674 mmHg 15%
    13:00 +36°C° 0 mm 3 mps 673 mmHg 14%
    14:00 +36°C° 0 mm 2 mps 673 mmHg 14%
    15:00 +35°C° 0 mm 2 mps 672 mmHg 14%
    16:00 +35°C° 0 mm 2 mps 671 mmHg 14%
    17:00 +31°C° 0 mm 2 mps 671 mmHg 17%
    18:00 +29°C° 0 mm 2 mps 671 mmHg 19%
    19:00 +26°C° 0 mm 2 mps 671 mmHg 22%
    20:00 +25°C° 0 mm 2 mps 672 mmHg 23%
    21:00 +25°C° 0 mm 2 mps 672 mmHg 23%
    22:00 +24°C° 0 mm 3 mps 673 mmHg 24%
    23:00 +22°C° 0 mm 3 mps 672 mmHg 24%

    Day after tomorrow, 30 July, Sunday

    Time Temperature Precipitation Wind Pressure Humidity
    00:00 +22°C° 0 mm 3 mps 672 mmHg 23%
    01:00 +21°C° 0 mm 3 mps 672 mmHg 23%
    02:00 +21°C° 0 mm 3 mps 671 mmHg 24%
    03:00 +20°C° 0 mm 3 mps 671 mmHg 24%
    04:00 +20°C° 0 mm 3 mps 671 mmHg 24%
    05:00 +20°C° 0 mm 3 mps 671 mmHg 25%
    06:00 +20°C° 0 mm 4 mps 672 mmHg 26%
    07:00 +20°C° 0 mm 4 mps 672 mmHg 26%
    08:00 +23°C° 0 mm 4 mps 673 mmHg 24%
    09:00 +27°C° 0 mm 4 mps 674 mmHg 21%
    10:00 +30°C° 0 mm 4 mps 675 mmHg 19%
    11:00 +34°C° 0 mm 3 mps 674 mmHg 16%
    12:00 +36°C° 0 mm 2 mps 674 mmHg 14%
    13:00 +37°C° 0 mm 1 mps 673 mmHg 12%
    14:00 +36°C° 0 mm 1 mps 672 mmHg 12%
    15:00 +36°C° 0 mm 1 mps 672 mmHg 12%
    16:00 +35°C° 0 mm 1 mps 671 mmHg 12%
    17:00 +32°C° 0 mm 1 mps 671 mmHg 15%
    18:00 +29°C° 0 mm 2 mps 671 mmHg 18%
    19:00 +27°C° 0 mm 2 mps 671 mmHg 20%
    20:00 +26°C° 0 mm 2 mps 671 mmHg 22%
    21:00 +25°C° 0 mm 2 mps 671 mmHg 24%
    22:00 +24°C° 0 mm 2 mps 672 mmHg 25%
    23:00 +23°C° 0 mm 2 mps 671 mmHg 26%

    31 July, Monday

    Time Temperature Precipitation Wind Pressure Humidity
    00:00 +23°C° 0 mm 2 mps 671 mmHg 27%
    01:00 +21°C° 0 mm 2 mps 670 mmHg 28%
    02:00 +21°C° 0 mm 2 mps 670 mmHg 28%
    03:00 +21°C° 0 mm 3 mps 670 mmHg 29%
    04:00 +20°C° 0 mm 3 mps 671 mmHg 29%
    05:00 +21°C° 0 mm 3 mps 671 mmHg 29%
    06:00 +21°C° 0 mm 3 mps 672 mmHg 29%
    07:00 +22°C° 0 mm 4 mps 672 mmHg 29%
    08:00 +26°C° 0 mm 4 mps 673 mmHg 26%
    09:00 +29°C° 0 mm 4 mps 673 mmHg 22%
    10:00 +33°C° 0 mm 4 mps 674 mmHg 19%
    11:00 +34°C° 0 mm 3 mps 673 mmHg 17%
    12:00 +36°C° 0 mm 3 mps 673 mmHg 15%
    13:00 +38°C° 0 mm 2 mps 672 mmHg 13%
    14:00 +37°C° 0 mm 2 mps 672 mmHg 13%
    15:00 +37°C° 0 mm 2 mps 671 mmHg 13%
    16:00 +37°C° 0 mm 2 mps 671 mmHg 13%
    17:00 +33°C° 0 mm 1 mps 671 mmHg 16%
    18:00 +30°C° 0 mm 1 mps 671 mmHg 19%
    19:00 +28°C° 0 mm 1 mps 671 mmHg 22%
    20:00 +27°C° 0 mm 1 mps 671 mmHg 23%
    21:00 +25°C° 0 mm 1 mps 671 mmHg 25%
    22:00 +24°C° 0 mm 1 mps 672 mmHg 27%
    23:00 +24°C° 0 mm 1 mps 671 mmHg 28%

    1 August, Tuesday

    Time Temperature Precipitation Wind Pressure Humidity
    00:00 +23°C° 0 mm 1 mps 671 mmHg 30%
    01:00 +22°C° 0 mm 1 mps 670 mmHg 31%
    02:00 +22°C° 0 mm 1 mps 670 mmHg 32%
    03:00 +21°C° 0 mm 1 mps 670 mmHg 32%
    04:00 +20°C° 0 mm 2 mps 670 mmHg 33%
    05:00 +21°C° 0 mm 2 mps 671 mmHg 32%
    06:00 +21°C° 0 mm 2 mps 672 mmHg 31%
    07:00 +23°C° 0 mm 2 mps 672 mmHg 30%
    08:00 +26°C° 0 mm 3 mps 673 mmHg 26%
    09:00 +29°C° 0 mm 3 mps 673 mmHg 23%
    10:00 +34°C° 0 mm 3 mps 674 mmHg 19%
    11:00 +35°C° 0 mm 3 mps 673 mmHg 17%
    12:00 +37°C° 0 mm 3 mps 673 mmHg 15%
    13:00 +38°C° 0 mm 2 mps 672 mmHg 14%
    14:00 +37°C° 0 mm 2 mps 672 mmHg 14%
    15:00 +37°C° 0 mm 2 mps 671 mmHg 15%
    16:00 +36°C° 0 mm 2 mps 671 mmHg 15%
    17:00 +34°C° 0 mm 2 mps 671 mmHg 18%
    18:00 +30°C° 0 mm 1 mps 671 mmHg 21%
    19:00 +28°C° 0 mm 1 mps 671 mmHg 24%
    20:00 +27°C° 0 mm 1 mps 671 mmHg 25%
    21:00 +26°C° 0 mm 1 mps 671 mmHg 26%
    22:00 +26°C° 0 mm 1 mps 672 mmHg 27%
    23:00 +25°C° 0 mm 1 mps 671 mmHg 27%

    2 August, Wednesday

    Time Temperature Precipitation Wind Pressure Humidity
    00:00 +25°C° 0 mm 1 mps 671 mmHg 28%
    01:00 +24°C° 0 mm 2 mps 671 mmHg 28%
    02:00 +24°C° 0 mm 2 mps 671 mmHg 28%
    03:00 +23°C° 0 mm 2 mps 671 mmHg 28%
    04:00 +21°C° 0 mm 2 mps 671 mmHg 29%
    05:00 +23°C° 0 mm 2 mps 672 mmHg 28%
    06:00 +22°C° 0 mm 3 mps 672 mmHg 28%
    07:00 +24°C° 0 mm 3 mps 673 mmHg 28%
    08:00 +27°C° 0 mm 3 mps 673 mmHg 24%
    09:00 +30°C° 0 mm 4 mps 674 mmHg 21%
    10:00 +35°C° 0 mm 4 mps 674 mmHg 17%
    11:00 +36°C° 0 mm 3 mps 674 mmHg 16%
    12:00 +37°C° 0 mm 3 mps 673 mmHg 14%
    13:00 +38°C° 0 mm 2 mps 672 mmHg 13%
    14:00 +38°C° 0 mm 2 mps 672 mmHg 13%
    15:00 +37°C° 0 mm 2 mps 672 mmHg 14%
    16:00 +36°C° 0 mm 2 mps 671 mmHg 14%
    17:00 +34°C° 0 mm 2 mps 671 mmHg 16%
    18:00 +31°C° 0 mm 2 mps 671 mmHg 19%
    19:00 +29°C° 0 mm 1 mps 671 mmHg 21%
    20:00 +28°C° 0 mm 1 mps 672 mmHg 22%
    21:00 +27°C° 0 mm 1 mps 672 mmHg 23%
    22:00 +27°C° 0 mm 1 mps 672 mmHg 24%
    23:00 +26°C° 0 mm 1 mps 672 mmHg 25%
    Show more